Simultaneous Nadir Overpasses (SNOs) Predictions

Prediction of SNOs between LANDSAT-8 and NPP Satellite Orbit:

Table of predicted SNOs for the next 14.0 days since TLE Epoch: 6/20/2014
Index Date (LANDSAT-8) Time (LANDSAT-8) Lat,Lon (LANDSAT-8) SZA (LANDSAT-8 ) Date (NPP) Time (NPP) Lat,Lon (NPP) SZA (NPP ) Distance(km) Time Diff (sec)
1 06/23/2014 02:01:19 -70.65, -33.16 132.84 06/23/2014 02:00:12 -70.66, -33.19 132.82 1.46 67
2 06/23/2014 02:50:46 70.55, 134.33 47.06 06/23/2014 02:50:56 70.55, 134.31 47.06 0.74 10
3 06/23/2014 03:40:21 -70.17, -58.59 133.31 06/23/2014 03:41:32 -70.14, -57.73 133.36 32.85 71
4 06/25/2014 18:17:48 -70.61, 82.66 132.83 06/25/2014 18:17:08 -70.61, 82.67 132.82 0.91 40
5 06/25/2014 19:07:15 70.50,-109.86 47.07 06/25/2014 19:07:52 70.50,-109.84 47.07 0.96 37
6 06/28/2014 09:44:41 71.04, 31.57 47.70 06/28/2014 09:43:31 71.08, 30.34 47.79 44.51 70
7 06/28/2014 10:34:18 -70.55,-161.54 132.77 06/28/2014 10:34:05 -70.57,-161.47 132.76 2.80 13
8 06/28/2014 11:23:45 70.44, 5.94 47.13 06/28/2014 11:24:49 70.46, 6.01 47.14 3.14 64
9 07/01/2014 02:01:17 70.65, 146.86 47.48 07/01/2014 02:00:20 70.63, 146.89 47.46 3.19 57
10 07/01/2014 02:50:47 -70.55, -45.66 132.62 07/01/2014 02:51:03 -70.57, -45.71 132.59 3.01 16
11 07/01/2014 03:40:27 69.72, 120.80 46.60 07/01/2014 03:41:33 69.73, 122.91 46.54 81.53 66
12 07/03/2014 18:17:46 70.64, -97.28 47.67 07/03/2014 18:17:18 70.64, -97.35 47.68 2.77 28
13 07/03/2014 19:07:16 -70.54, 70.21
